CW9927 Weather Reports


time (UTC)temp
F
wind
direction
speed
knots
gust
knots
rain 1hr
in
rain 24hr
in
rain mn
in
humidity
%
barometer
mb
20260508214116 77 0.0 0.0 0.00 0.00 0.00 52 1016.9
20260508213117 77 0.0 0.0 0.00 0.00 0.00 51 1016.9
20260508212116 77 0.0 0.0 0.00 0.00 0.00 51 1017.2
20260508211116 77 0.0 0.0 0.00 0.00 0.00 52 1017.2
20260508210116 76 0.0 0.0 0.00 0.00 0.00 53 1017.3
20260508205116 76 0.0 0.0 0.00 0.00 0.00 51 1017.4
20260508204137 75 0.0 0.0 0.00 0.00 0.00 51 1017.5
20260508203117 75 0.0 0.0 0.00 0.00 0.00 50 1017.7
20260508202116 75 0.0 0.0 0.00 0.00 0.00 52 1017.7
20260508201120 74 0.0 0.0 0.00 0.00 0.00 52 1017.9
20260508200116 73 0.0 0.0 0.00 0.00 0.00 51 1017.9
20260508195116 73 0.0 0.0 0.00 0.00 0.00 51 1018.1
20260508194117 72 0.0 0.0 0.00 0.00 0.00 53 1018.2
20260508193137 71 0.0 0.0 0.00 0.00 0.00 54 1018.3
20260508192116 70 0.0 0.0 0.00 0.00 0.00 54 1018.4
20260508191116 69 0.0 0.0 0.00 0.00 0.00 57 1018.6
20260508185117 68 0.0 0.0 0.00 0.00 0.00 60 1018.8
20260508184118 66 0.0 0.0 0.00 0.00 0.00 62 1018.8
20260508183117 66 0.0 0.0 0.00 0.00 0.00 65 1019.1
20260508182117 66 0.0 0.0 0.00 0.00 0.00 64 1019.2
20260508181138 65 0.0 0.0 0.00 0.00 0.00 65 1019.2
20260508180117 64 0.0 0.0 0.00 0.00 0.00 65 1019.3
20260508175118 63 0.0 0.0 0.00 0.00 0.00 68 1019.3
20260508174117 62 0.0 0.0 0.00 0.00 0.00 69 1019.3
20260508173117 62 0.0 0.0 0.00 0.00 0.00 70 1019.5
20260508172117 61 0.0 0.0 0.00 0.00 0.00 72 1019.5
20260508171117 60 0.0 0.0 0.00 0.00 0.00 74 1019.5
20260508170115 59 0.0 0.0 0.00 0.00 0.00 75 1019.6
20260508165117 58 0.0 0.0 0.00 0.00 0.00 76 1019.6
20260508164118 58 0.0 0.0 0.00 0.00 0.00 78 1019.7
20260508163117 57 0.0 0.0 0.00 0.00 0.00 81 1019.8
20260508162118 56 0.0 0.0 0.00 0.00 0.00 81 1019.9
20260508161118 55 0.0 0.0 0.00 0.00 0.00 81 1019.9
20260508160118 55 0.0 0.0 0.00 0.00 0.00 82 1019.9
20260508155118 55 0.0 0.0 0.00 0.00 0.00 83 1019.9
20260508154118 55 0.0 0.0 0.00 0.00 0.00 84 1019.9
20260508153118 54 0.0 0.0 0.00 0.00 0.00 84 1020.0
20260508152118 54 0.0 0.0 0.00 0.00 0.00 85 1019.9
20260508151117 54 0.0 0.0 0.00 0.00 0.00 85 1019.8
20260508150138 54 0.0 0.0 0.00 0.00 0.00 86 1020.0
20260508145117 54 0.0 0.0 0.00 0.00 0.00 86 1020.0
20260508144117 53 0.0 0.0 0.00 0.00 0.00 86 1019.9
20260508143117 53 0.0 0.0 0.00 0.00 0.00 87 1019.9
20260508142117 53 0.0 0.0 0.00 0.00 0.00 87 1019.7
20260508141117 53 0.0 0.0 0.00 0.00 0.00 87 1019.5
20260508140300 53 0.0 0.0 0.00 0.00 0.00 88 1019.5
20260508135117 53 0.0 0.0 0.00 0.00 0.00 88 1019.5
20260508134138 53 0.0 0.0 0.00 0.00 0.00 88 1019.5
20260508133117 53 0.0 0.0 0.00 0.00 0.00 88 1019.5
20260508132117 53 0.0 0.0 0.00 0.00 0.00 88 1019.4
20260508131117 53 0.0 0.0 0.00 0.00 0.00 88 1019.4
20260508130254 53 0.0 0.0 0.00 0.00 0.00 88 1019.4
20260508125316 53 0.0 0.0 0.00 0.00 0.00 88 1019.3
20260508124316 53 0.0 0.0 0.00 0.00 0.00 89 1019.1
20260508123316 53 0.0 0.0 0.00 0.00 0.00 89 1019.1
20260508122316 53 0.0 0.0 0.00 0.00 0.00 89 1019.0
20260508121336 53 0.0 0.0 0.00 0.00 0.00 89 1019.1
20260508120317 53 0.0 0.0 0.00 0.00 0.00 89 1019.1
20260508115400 53 0.0 0.0 0.00 0.00 0.00 89 1019.1
20260508114316 53 0.0 0.0 0.00 0.00 0.00 90 1019.0
20260508113316 53 0.0 0.0 0.00 0.00 0.00 90 1019.0
20260508112316 53 0.0 0.0 0.00 0.00 0.00 90 1018.9
20260508111336 53 0.0 0.0 0.00 0.00 0.00 90 1018.9
20260508110316 54 0.0 0.0 0.00 0.00 0.00 90 1018.9
20260508105316 54 0.0 0.0 0.00 0.00 0.00 90 1018.9
20260508104316 54 0.0 0.0 0.00 0.00 0.00 89 1018.9
20260508103316 54 0.0 0.0 0.00 0.00 0.00 90 1018.8
20260508102316 54 0.0 0.0 0.00 0.00 0.00 90 1018.7
20260508101316 54 0.0 0.0 0.00 0.00 0.00 90 1018.8
20260508100316 54 0.0 0.0 0.00 0.00 0.00 90 1018.8
20260508095316 54 0.0 0.0 0.00 0.00 0.00 90 1018.8
20260508094317 54 0.0 0.0 0.00 0.00 0.00 90 1018.8
20260508093316 54 0.0 0.0 0.00 0.00 0.00 90 1018.8
20260508092316 54 0.0 0.0 0.00 0.00 0.00 90 1018.8
20260508091317 54 0.0 0.0 0.00 0.00 0.00 90 1018.8
20260508090316 53 0.0 0.0 0.00 0.00 0.00 90 1018.8
20260508085317 53 0.0 0.0 0.00 0.00 0.00 90 1018.8
20260508084316 53 0.0 0.0 0.00 0.00 0.00 90 1018.8
20260508083316 52 0.0 0.0 0.00 0.00 0.00 89 1018.8
20260508082316 52 0.0 0.0 0.00 0.00 0.00 89 1018.8
20260508081316 51 0.0 0.0 0.00 0.00 0.00 89 1018.8
20260508080316 51 0.0 0.0 0.00 0.00 0.00 89 1018.8
20260508075316 50 0.0 0.0 0.00 0.00 0.00 87 1018.7
20260508074316 50 0.0 0.0 0.00 0.00 0.00 87 1018.6
20260508073316 51 0.0 0.0 0.00 0.00 0.00 86 1018.6
20260508072316 51 0.0 0.0 0.00 0.00 0.00 87 1018.5
20260508071316 51 0.0 0.0 0.00 0.00 0.00 87 1018.4
20260508070408 52 0.0 0.0 0.00 0.00 0.00 86 1018.3
20260508070211 52 0.0 0.0 0.00 0.00 0.00 86 1018.3
20260508065116 52 0.0 0.0 0.00 0.00 0.00 86 1018.3
20260508064116 52 0.0 0.0 0.00 0.00 0.00 86 1018.2
20260508063138 52 0.0 0.0 0.00 0.00 0.00 86 1018.3
20260508062116 52 0.0 0.0 0.00 0.00 0.00 86 1018.3
20260508061116 52 0.0 0.0 0.00 0.00 0.00 85 1018.2
20260508060136 53 0.0 0.0 0.00 0.00 0.00 85 1018.2
20260508055116 53 0.0 0.0 0.00 0.00 0.00 85 1018.4
20260508054156 53 0.0 0.0 0.00 0.00 0.00 85 1018.4
20260508053118 54 0.0 0.0 0.00 0.00 0.00 85 1018.3
20260508052116 54 0.0 0.0 0.00 0.00 0.00 85 1018.2
20260508051117 54 0.0 0.0 0.00 0.00 0.00 84 1018.1
20260508050147 55 0.0 0.0 0.00 0.00 0.00 84 1018.2
20260508045116 55 0.0 0.0 0.00 0.00 0.00 83 1018.0
20260508044116 55 0.0 0.0 0.00 0.00 0.00 83 1017.9
20260508043116 55 0.0 0.0 0.00 0.00 0.00 82 1017.8
20260508042137 56 0.0 0.0 0.00 0.00 0.00 82 1017.9
20260508041116 56 0.0 0.0 0.00 0.00 0.00 81 1017.7
20260508040117 56 0.0 0.0 0.00 0.00 0.00 80 1017.6
20260508035117 57 0.0 0.0 0.00 0.00 0.00 80 1017.5
20260508034116 57 0.0 0.0 0.00 0.00 0.00 80 1017.3
20260508033117 58 0.0 0.0 0.00 0.00 0.00 78 1017.3
20260508032116 58 0.0 0.0 0.00 0.00 0.00 77 1017.2
20260508031116 59 0.0 0.0 0.00 0.00 0.00 75 1017.2
20260508030116 60 0.0 0.0 0.00 0.00 0.00 74 1017.1
20260508025117 61 0.0 0.0 0.00 0.00 0.00 73 1016.9
20260508024136 62 0.0 0.0 0.00 0.00 0.00 70 1016.8
20260508023137 64 0.0 0.0 0.00 0.00 0.00 68 1016.8
20260508022116 65 0.0 0.0 0.00 0.00 0.00 68 1016.7
20260508021116 66 0.0 0.0 0.00 0.00 0.00 68 1016.6
20260508020116 67 0.0 0.0 0.00 0.00 0.00 67 1016.6
20260508015116 69 0.0 0.0 0.00 0.00 0.00 65 1016.4
20260508014116 70 0.0 0.0 0.00 0.00 0.00 63 1016.4
20260508013116 71 0.0 0.0 0.00 0.00 0.00 64 1016.4
20260508012116 71 0.0 0.0 0.00 0.00 0.00 64 1016.3
20260508011117 72 0.0 0.0 0.00 0.00 0.00 63 1016.4
20260508005118 74 0.0 0.0 0.00 0.00 0.00 60 1016.2
20260508004117 74 0.0 0.0 0.00 0.00 0.00 60 1016.2
20260508003118 75 0.0 0.0 0.00 0.00 0.00 61 1016.0
20260508002117 75 0.0 0.0 0.00 0.00 0.00 61 1016.0
20260508001118 76 0.0 0.9 0.00 0.00 0.00 60 1016.0
20260508000118 76 0.0 2.6 0.00 0.00 0.00 60 1015.9
20260507235138 77 0.0 0.0 0.00 0.00 0.00 59 1015.9
20260507234117 78 0.0 0.0 0.00 0.00 0.00 59 1015.7
20260507233118 79 0.0 0.0 0.00 0.00 0.00 59 1015.7
20260507232158 79 0.0 0.0 0.00 0.00 0.00 58 1015.8
20260507231118 80 0.0 0.0 0.00 0.00 0.00 58 1015.8
20260507230118 80 0.0 0.0 0.00 0.00 0.00 56 1015.9
20260507225118 80 0.0 0.0 0.00 0.00 0.00 56 1015.9
20260507224117 80 0.0 0.0 0.00 0.00 0.00 55 1016.0
20260507223138 81 0.0 0.0 0.00 0.00 0.00 54 1016.0
20260507222138 80 0.0 0.0 0.00 0.00 0.00 56 1016.1
20260507221117 80 0.0 0.0 0.00 0.00 0.00 56 1016.2
20260507220117 81 0.0 0.0 0.00 0.00 0.00 56 1016.3
20260507215117 81 0.0 0.0 0.00 0.00 0.00 54 1016.5